CFG7VD GCFV-EDDF

Flight info

Callsign CFG7VD
Flight time N/A
Altitude 34000
Route VASTO DCT BAROK DCT SUNES DCT TAGUX DCT TOFEF DCT BARDI DCT ZMR DCT NUBLO DCT RONSI DCT DELOG DCT DIDIG DCT ARDOD DCT OBATO UM163 TSU UN858 OQQAL DCT RANUX/N0447F350 DCT VALEK DCT LUTAX DCT DIK T856 NIVNU T847 IMCOM IMCOM1A
Aircraft A321/M-SDE3FGHIRWY/LB1

Departure

Time 2026-05-04 12:59
Airport Fuerteventura Airport (GCFV)

Arrival

Time N/A
Airport Frankfurt Main Airport (EDDF)
Time Latitude Longitude Altitude Speed Heading
2026-05-04 12:38 28.45331 -13.86830 99 ft 0 kts 272°
2026-05-04 12:49 28.45330 -13.86823 99 ft 3 kts 272°
2026-05-04 12:50 28.45330 -13.86802 98 ft 3 kts 272°
2026-05-04 12:50 28.45329 -13.86780 97 ft 3 kts 272°
2026-05-04 12:50 28.45330 -13.86759 97 ft 3 kts 245°
2026-05-04 12:50 28.45341 -13.86742 96 ft 3 kts 195°
2026-05-04 12:51 28.45345 -13.86741 99 ft 0 kts 186°
2026-05-04 12:53 28.45325 -13.86739 102 ft 6 kts 176°
2026-05-04 12:53 28.45263 -13.86738 100 ft 10 kts 181°
2026-05-04 12:54 28.45197 -13.86740 101 ft 11 kts 182°
2026-05-04 12:54 28.45122 -13.86735 99 ft 10 kts 157°
2026-05-04 12:54 28.45098 -13.86672 98 ft 9 kts 90°
2026-05-04 12:54 28.45079 -13.86590 97 ft 12 kts 134°
2026-05-04 12:55 28.44992 -13.86578 95 ft 15 kts 182°
2026-05-04 12:55 28.44869 -13.86583 94 ft 21 kts 182°
2026-05-04 12:55 28.44683 -13.86590 72 ft 31 kts 181°
2026-05-04 12:55 28.44471 -13.86596 60 ft 31 kts 182°
2026-05-04 12:56 28.44258 -13.86602 55 ft 30 kts 181°
2026-05-04 12:56 28.44046 -13.86608 53 ft 31 kts 180°
2026-05-04 12:56 28.43829 -13.86616 45 ft 30 kts 181°
2026-05-04 12:56 28.43634 -13.86623 41 ft 28 kts 181°
2026-05-04 12:57 28.43453 -13.86629 36 ft 22 kts 182°
2026-05-04 12:57 28.43324 -13.86632 34 ft 15 kts 181°
2026-05-04 12:57 28.43274 -13.86626 32 ft 12 kts 158°
2026-05-04 12:58 28.43249 -13.86572 31 ft 8 kts 96°
2026-05-04 12:58 28.43255 -13.86517 32 ft 7 kts 72°
2026-05-04 12:58 28.43308 -13.86452 34 ft 16 kts 29°
2026-05-04 12:58 28.43474 -13.86435 33 ft 43 kts
2026-05-04 12:59 28.43992 -13.86418 35 ft 104 kts
2026-05-04 12:59 28.44874 -13.86389 74 ft 148 kts
2026-05-04 12:59 28.46002 -13.86358 315 ft 165 kts
2026-05-04 12:59 28.47101 -13.86189 1011 ft 159 kts 24°
2026-05-04 13:00 28.48132 -13.85639 1415 ft 172 kts 28°
2026-05-04 13:00 28.49254 -13.84972 1546 ft 194 kts 30°
2026-05-04 13:00 28.50563 -13.84374 1734 ft 216 kts
2026-05-04 13:00 28.52121 -13.84327 2209 ft 229 kts
2026-05-04 13:01 28.53753 -13.84154 2731 ft 246 kts
2026-05-04 13:01 28.55488 -13.83879 3391 ft 255 kts
2026-05-04 13:01 28.57228 -13.83586 4148 ft 257 kts
2026-05-04 13:01 28.59027 -13.83301 4867 ft 262 kts
2026-05-04 13:02 28.60835 -13.83035 5517 ft 266 kts
2026-05-04 13:02 28.62689 -13.82777 6161 ft 271 kts
2026-05-04 13:02 28.64584 -13.82526 6723 ft 276 kts
2026-05-04 13:02 28.66513 -13.82269 7289 ft 281 kts
2026-05-04 13:03 28.68467 -13.82007 7889 ft 284 kts
2026-05-04 13:03 28.70443 -13.81743 8502 ft 288 kts
2026-05-04 13:03 28.72445 -13.81476 9095 ft 291 kts
2026-05-04 13:03 28.74442 -13.81210 9685 ft 295 kts
2026-05-04 13:04 28.76496 -13.80934 10241 ft 299 kts
2026-05-04 13:04 28.78625 -13.80653 10422 ft 318 kts
2026-05-04 13:04 28.80890 -13.80362 10546 ft 337 kts
2026-05-04 13:04 28.83288 -13.80054 10662 ft 356 kts
2026-05-04 13:05 28.85812 -13.79724 10780 ft 373 kts
2026-05-04 13:05 28.88437 -13.79374 11056 ft 385 kts
2026-05-04 13:05 28.91111 -13.79009 11554 ft 390 kts
2026-05-04 13:05 28.93816 -13.78636 12105 ft 393 kts
2026-05-04 13:06 28.96542 -13.78263 12662 ft 396 kts
2026-05-04 13:06 28.99291 -13.77889 13187 ft 399 kts
2026-05-04 13:06 29.02059 -13.77515 13716 ft 402 kts
2026-05-04 13:06 29.04812 -13.77146 14182 ft 405 kts
2026-05-04 13:07 29.07624 -13.76772 14617 ft 408 kts
2026-05-04 13:07 29.10457 -13.76394 15047 ft 411 kts
2026-05-04 13:07 29.13308 -13.76012 15497 ft 414 kts
2026-05-04 13:07 29.16181 -13.75626 15921 ft 417 kts
2026-05-04 13:08 29.19075 -13.75236 16346 ft 420 kts
2026-05-04 13:08 29.21988 -13.74843 16760 ft 423 kts
2026-05-04 13:08 29.24923 -13.74450 17175 ft 426 kts
2026-05-04 13:08 29.27878 -13.74054 17586 ft 429 kts
2026-05-04 13:09 29.30855 -13.73654 17992 ft 432 kts
2026-05-04 13:09 29.33812 -13.73257 18381 ft 435 kts
2026-05-04 13:09 29.36827 -13.72852 18730 ft 438 kts
2026-05-04 13:09 29.39863 -13.72443 19079 ft 440 kts
2026-05-04 13:10 29.42913 -13.72028 19453 ft 442 kts
2026-05-04 13:10 29.45978 -13.71611 19808 ft 445 kts
2026-05-04 13:10 29.49059 -13.71190 20155 ft 447 kts
2026-05-04 13:10 29.52160 -13.70767 20499 ft 450 kts
2026-05-04 13:11 29.55276 -13.70343 20846 ft 452 kts
2026-05-04 13:11 29.58407 -13.69920 21183 ft 455 kts
2026-05-04 13:11 29.61516 -13.69502 21512 ft 457 kts
2026-05-04 13:11 29.64682 -13.69077 21834 ft 459 kts
2026-05-04 13:12 29.67863 -13.68648 22147 ft 462 kts
2026-05-04 13:12 29.71063 -13.68215 22512 ft 464 kts
2026-05-04 13:12 29.74274 -13.67778 22846 ft 466 kts
2026-05-04 13:12 29.77500 -13.67338 23158 ft 468 kts
2026-05-04 13:13 29.80743 -13.66895 23470 ft 470 kts
2026-05-04 13:13 29.84000 -13.66453 23776 ft 473 kts
2026-05-04 13:13 29.87228 -13.66015 24021 ft 475 kts
2026-05-04 13:13 29.90518 -13.65568 24274 ft 477 kts
2026-05-04 13:14 29.93814 -13.65119 24536 ft 478 kts
2026-05-04 13:14 29.97126 -13.64668 24787 ft 480 kts
2026-05-04 13:14 30.00449 -13.64215 25037 ft 482 kts
2026-05-04 13:14 30.03784 -13.63759 25289 ft 483 kts